Time,TemperatureF,DewpointF,PressureIn,WindDirection,WindDirectionDegrees,WindSpeedMPH,WindSpeedGustMPH,Humidity,HourlyPrecipIn,Conditions,Clouds,dailyrainin,SoftwareType,DateUTC
2013-03-05 00:02:00,25.2,24.0,30.13,ESE,104,3.0,5.0,94,0.00,,,0.00,weatherlink.com 1.10,2013-03-05 06:02:00,
2013-03-05 00:17:00,25.2,24.0,30.13,NE,55,0.0,4.0,94,0.00,,,0.00,weatherlink.com 1.10,2013-03-05 06:17:00,
2013-03-05 00:32:00,25.2,24.0,30.13,ENE,70,0.0,5.0,94,0.00,,,0.00,weatherlink.com 1.10,2013-03-05 06:32:00,
2013-03-05 00:47:00,25.2,24.0,30.13,East,81,1.0,3.0,94,0.00,,,0.00,weatherlink.com 1.10,2013-03-05 06:47:00,
2013-03-05 01:02:00,25.2,24.0,30.13,ESE,119,0.0,2.0,94,0.00,,,0.00,weatherlink.com 1.10,2013-03-05 07:02:00,
2013-03-05 01:17:00,25.2,24.0,30.12,ESE,107,0.0,2.0,94,0.00,,,0.00,weatherlink.com 1.10,2013-03-05 07:17:00,
2013-03-05 01:32:00,25.2,24.0,30.12,East,88,0.0,3.0,94,0.00,,,0.00,weatherlink.com 1.10,2013-03-05 07:32:00,
2013-03-05 01:47:00,25.2,24.0,30.12,ENE,75,3.0,4.0,94,0.00,,,0.00,weatherlink.com 1.10,2013-03-05 07:47:00,
2013-03-05 02:02:00,25.3,24.0,30.12,East,83,0.0,2.0,94,0.00,,,0.00,weatherlink.com 1.10,2013-03-05 08:02:00,
2013-03-05 02:17:00,25.3,24.0,30.12,East,82,0.0,2.0,94,0.00,,,0.00,weatherlink.com 1.10,2013-03-05 08:17:00,
2013-03-05 02:32:00,25.3,24.0,30.12,ENE,78,1.0,6.0,94,0.00,,,0.00,weatherlink.com 1.10,2013-03-05 08:32:00,
2013-03-05 02:47:00,25.2,24.0,30.12,ENE,75,0.0,4.0,94,0.00,,,0.00,weatherlink.com 1.10,2013-03-05 08:47:00,
2013-03-05 03:02:00,25.2,24.0,30.11,East,88,2.0,3.0,94,0.00,,,0.00,weatherlink.com 1.10,2013-03-05 09:02:00,
2013-03-05 03:17:00,25.2,24.0,30.11,East,90,0.0,3.0,94,0.00,,,0.00,weatherlink.com 1.10,2013-03-05 09:17:00,
2013-03-05 03:32:00,25.1,24.0,30.11,East,91,1.0,4.0,94,0.00,,,0.00,weatherlink.com 1.10,2013-03-05 09:32:00,
2013-03-05 03:47:00,25.0,24.0,30.11,ENE,70,1.0,3.0,94,0.00,,,0.00,weatherlink.com 1.10,2013-03-05 09:47:00,
2013-03-05 04:02:00,24.9,24.0,30.11,East,90,2.0,5.0,94,0.00,,,0.00,weatherlink.com 1.10,2013-03-05 10:02:00,
2013-03-05 04:17:00,24.9,24.0,30.11,ENE,76,0.0,3.0,94,0.00,,,0.00,weatherlink.com 1.10,2013-03-05 10:17:00,
2013-03-05 04:32:00,24.8,23.0,30.12,East,100,5.0,5.0,94,0.00,,,0.00,weatherlink.com 1.10,2013-03-05 10:32:00,
2013-03-05 04:47:00,24.8,23.0,30.12,ESE,103,2.0,3.0,94,0.00,,,0.00,weatherlink.com 1.10,2013-03-05 10:47:00,
2013-03-05 05:04:00,24.7,23.0,30.12,East,98,0.0,4.0,94,0.00,,,0.00,weatherlink.com 1.10,2013-03-05 11:04:00,
2013-03-05 05:17:00,24.6,23.0,30.12,East,89,1.0,5.0,95,0.00,,,0.00,weatherlink.com 1.10,2013-03-05 11:17:00,
2013-03-05 05:32:00,24.5,23.0,30.12,ESE,115,3.0,5.0,95,0.00,,,0.00,weatherlink.com 1.10,2013-03-05 11:32:00,
2013-03-05 05:47:00,24.5,23.0,30.12,East,88,1.0,4.0,95,0.00,,,0.00,weatherlink.com 1.10,2013-03-05 11:47:00,
2013-03-05 06:02:00,24.5,23.0,30.13,East,86,0.0,5.0,95,0.00,,,0.00,weatherlink.com 1.10,2013-03-05 12:02:00,
2013-03-05 06:17:00,24.5,23.0,30.13,East,79,0.0,3.0,94,0.00,,,0.00,weatherlink.com 1.10,2013-03-05 12:17:00,
2013-03-05 06:32:00,24.5,23.0,30.13,ESE,110,2.0,5.0,95,0.00,,,0.00,weatherlink.com 1.10,2013-03-05 12:32:00,
2013-03-05 06:47:00,24.4,23.0,30.13,East,93,0.0,5.0,94,0.00,,,0.00,weatherlink.com 1.10,2013-03-05 12:47:00,
2013-03-05 07:02:00,24.5,23.0,30.13,ENE,71,0.0,1.0,95,0.00,,,0.00,weatherlink.com 1.10,2013-03-05 13:02:00,
2013-03-05 07:17:00,24.5,23.0,30.14,ENE,78,0.0,5.0,95,0.00,,,0.00,weatherlink.com 1.10,2013-03-05 13:17:00,
2013-03-05 07:32:00,24.6,23.0,30.14,East,82,0.0,3.0,95,0.00,,,0.00,weatherlink.com 1.10,2013-03-05 13:32:00,
2013-03-05 07:47:00,24.7,24.0,30.14,East,97,0.0,3.0,95,0.00,,,0.00,weatherlink.com 1.10,2013-03-05 13:47:00,
2013-03-05 08:02:00,24.8,24.0,30.14,East,82,0.0,5.0,95,0.00,,,0.00,weatherlink.com 1.10,2013-03-05 14:02:00,
2013-03-05 08:17:00,25.0,24.0,30.14,NNE,31,2.0,5.0,94,0.00,,,0.00,weatherlink.com 1.10,2013-03-05 14:17:00,
2013-03-05 08:32:00,25.1,24.0,30.14,ENE,70,0.0,5.0,94,0.00,,,0.00,weatherlink.com 1.10,2013-03-05 14:32:00,
2013-03-05 08:47:00,25.2,24.0,30.15,East,98,0.0,5.0,94,0.00,,,0.00,weatherlink.com 1.10,2013-03-05 14:47:00,
2013-03-05 09:03:00,25.6,24.0,30.15,North,360,3.0,4.0,94,0.00,,,0.00,weatherlink.com 1.10,2013-03-05 15:03:00,
2013-03-05 09:18:00,25.8,24.0,30.16,NNE,15,4.0,4.0,94,0.00,,,0.00,weatherlink.com 1.10,2013-03-05 15:18:00,
2013-03-05 09:33:00,25.7,24.0,30.16,NE,35,1.0,5.0,93,0.00,,,0.00,weatherlink.com 1.10,2013-03-05 15:33:00,
2013-03-05 09:48:00,25.6,24.0,30.17,NNE,26,2.0,5.0,92,0.00,,,0.00,weatherlink.com 1.10,2013-03-05 15:48:00,
2013-03-05 10:03:00,25.7,24.0,30.18,NNE,15,1.0,4.0,92,0.00,,,0.00,weatherlink.com 1.10,2013-03-05 16:03:00,
2013-03-05 10:18:00,25.7,24.0,30.18,NNE,17,3.0,7.0,92,0.00,,,0.00,weatherlink.com 1.10,2013-03-05 16:18:00,
2013-03-05 10:33:00,25.7,24.0,30.19,NE,45,2.0,5.0,91,0.00,,,0.00,weatherlink.com 1.10,2013-03-05 16:33:00,
2013-03-05 10:48:00,25.8,24.0,30.19,North,11,3.0,7.0,91,0.00,,,0.00,weatherlink.com 1.10,2013-03-05 16:48:00,
2013-03-05 11:03:00,26.1,24.0,30.20,NNE,24,3.0,7.0,91,0.00,,,0.00,weatherlink.com 1.10,2013-03-05 17:03:00,
2013-03-05 11:18:00,26.2,24.0,30.20,North,11,5.0,6.0,91,0.00,,,0.00,weatherlink.com 1.10,2013-03-05 17:18:00,
2013-03-05 11:33:00,26.2,24.0,30.20,NNE,19,1.0,6.0,91,0.00,,,0.00,weatherlink.com 1.10,2013-03-05 17:33:00,
2013-03-05 11:48:00,26.7,25.0,30.21,North,11,4.0,6.0,92,0.00,,,0.00,weatherlink.com 1.10,2013-03-05 17:48:00,
2013-03-05 12:03:00,26.6,24.0,30.21,NNE,31,2.0,8.0,90,0.00,,,0.00,weatherlink.com 1.10,2013-03-05 18:03:00,
2013-03-05 12:18:00,27.0,25.0,30.21,North,360,1.0,7.0,91,0.00,,,0.00,weatherlink.com 1.10,2013-03-05 18:18:00,
2013-03-05 12:33:00,27.4,25.0,30.21,NNE,26,0.0,6.0,91,0.00,,,0.00,weatherlink.com 1.10,2013-03-05 18:33:00,
2013-03-05 12:48:00,27.9,25.0,30.21,NNE,17,3.0,6.0,90,0.00,,,0.00,weatherlink.com 1.10,2013-03-05 18:48:00,
2013-03-05 13:03:00,28.1,25.0,30.21,NNE,29,6.0,8.0,89,0.00,,,0.00,weatherlink.com 1.10,2013-03-05 19:03:00,
2013-03-05 13:18:00,28.2,25.0,30.21,NE,38,4.0,8.0,88,0.00,,,0.00,weatherlink.com 1.10,2013-03-05 19:18:00,
2013-03-05 13:48:00,28.9,26.0,30.21,NNW,344,5.0,10.0,87,0.00,,,0.00,weatherlink.com 1.10,2013-03-05 19:48:00,
2013-03-05 14:03:00,28.7,25.0,30.21,NE,40,5.0,11.0,86,0.00,,,0.00,weatherlink.com 1.10,2013-03-05 20:03:00,
2013-03-05 14:19:00,29.3,26.0,30.22,NE,39,2.0,12.0,86,0.00,,,0.00,weatherlink.com 1.10,2013-03-05 20:19:00,
2013-03-05 14:33:00,29.4,26.0,30.22,NNE,32,2.0,9.0,85,0.00,,,0.00,weatherlink.com 1.10,2013-03-05 20:33:00,
2013-03-05 14:48:00,29.4,26.0,30.23,NNE,23,8.0,13.0,85,0.00,,,0.00,weatherlink.com 1.10,2013-03-05 20:48:00,
2013-03-05 15:03:00,29.1,24.0,30.24,NE,53,3.0,14.0,82,0.00,,,0.00,weatherlink.com 1.10,2013-03-05 21:03:00,
2013-03-05 15:18:00,29.6,25.0,30.25,North,355,5.0,9.0,82,0.00,,,0.00,weatherlink.com 1.10,2013-03-05 21:18:00,
2013-03-05 16:03:00,29.3,24.0,30.27,North,11,1.0,8.0,82,0.00,,,0.00,weatherlink.com 1.10,2013-03-05 22:03:00,
2013-03-05 16:19:00,28.8,24.0,30.28,North,360,2.0,7.0,82,0.00,,,0.00,weatherlink.com 1.10,2013-03-05 22:19:00,
2013-03-05 16:34:00,28.8,24.0,30.29,NW,318,5.0,8.0,83,0.00,,,0.00,weatherlink.com 1.10,2013-03-05 22:34:00,
2013-03-05 16:49:00,28.6,25.0,30.30,NNE,30,5.0,8.0,85,0.00,,,0.00,weatherlink.com 1.10,2013-03-05 22:49:00,
2013-03-05 17:04:00,28.5,24.0,30.30,NNE,13,2.0,8.0,84,0.00,,,0.00,weatherlink.com 1.10,2013-03-05 23:04:00,
2013-03-05 17:19:00,28.5,25.0,30.31,North,355,2.0,7.0,85,0.00,,,0.00,weatherlink.com 1.10,2013-03-05 23:19:00,
2013-03-05 17:34:00,28.1,24.0,30.31,NNW,341,0.0,9.0,83,0.00,,,0.00,weatherlink.com 1.10,2013-03-05 23:34:00,
2013-03-05 17:49:00,27.9,24.0,30.32,NNW,327,0.0,6.0,84,0.00,,,0.00,weatherlink.com 1.10,2013-03-05 23:49:00,
2013-03-05 18:04:00,27.8,23.0,30.32,North,5,1.0,7.0,83,0.00,,,0.00,weatherlink.com 1.10,2013-03-06 00:04:00,
2013-03-05 18:19:00,27.6,23.0,30.33,NNE,25,3.0,7.0,84,0.00,,,0.00,weatherlink.com 1.10,2013-03-06 00:19:00,
2013-03-05 18:34:00,27.7,24.0,30.34,North,5,0.0,7.0,84,0.00,,,0.00,weatherlink.com 1.10,2013-03-06 00:34:00,
2013-03-05 18:49:00,27.8,24.0,30.35,WNW,298,0.0,9.0,85,0.00,,,0.00,weatherlink.com 1.10,2013-03-06 00:49:00,
2013-03-05 19:04:00,27.5,24.0,30.34,North,360,1.0,8.0,85,0.00,,,0.00,weatherlink.com 1.10,2013-03-06 01:04:00,
2013-03-05 19:19:00,27.4,24.0,30.35,NNW,341,2.0,6.0,86,0.00,,,0.00,weatherlink.com 1.10,2013-03-06 01:19:00,
2013-03-05 19:34:00,27.1,24.0,30.35,NNW,339,1.0,9.0,86,0.00,,,0.00,weatherlink.com 1.10,2013-03-06 01:34:00,
2013-03-05 19:49:00,27.0,24.0,30.35,NE,37,1.0,10.0,87,0.00,,,0.00,weatherlink.com 1.10,2013-03-06 01:49:00,
2013-03-05 20:04:00,27.2,24.0,30.36,NW,319,3.0,6.0,88,0.00,,,0.00,weatherlink.com 1.10,2013-03-06 02:04:00,
2013-03-05 20:19:00,27.2,24.0,30.36,NNW,332,2.0,11.0,87,0.00,,,0.00,weatherlink.com 1.10,2013-03-06 02:19:00,
2013-03-05 20:34:00,27.0,23.0,30.37,North,5,5.0,10.0,85,0.00,,,0.00,weatherlink.com 1.10,2013-03-06 02:34:00,
2013-03-05 20:49:00,26.6,22.0,30.38,North,9,2.0,11.0,84,0.00,,,0.00,weatherlink.com 1.10,2013-03-06 02:49:00,
2013-03-05 21:04:00,26.2,22.0,30.38,North,355,6.0,11.0,84,0.00,,,0.00,weatherlink.com 1.10,2013-03-06 03:04:00,
2013-03-05 21:19:00,25.8,22.0,30.39,North,5,2.0,11.0,85,0.00,,,0.00,weatherlink.com 1.10,2013-03-06 03:19:00,
2013-03-05 21:34:00,25.7,22.0,30.40,NNE,30,4.0,11.0,84,0.00,,,0.00,weatherlink.com 1.10,2013-03-06 03:34:00,
2013-03-05 21:49:00,25.5,21.0,30.40,NNW,345,4.0,14.0,83,0.00,,,0.00,weatherlink.com 1.10,2013-03-06 03:49:00,
2013-03-05 22:04:00,25.1,21.0,30.41,NNE,26,4.0,9.0,84,0.00,,,0.00,weatherlink.com 1.10,2013-03-06 04:04:00,
2013-03-05 22:19:00,24.6,20.0,30.41,NNE,19,8.0,10.0,84,0.00,,,0.00,weatherlink.com 1.10,2013-03-06 04:19:00,
2013-03-05 22:34:00,24.2,20.0,30.41,NNW,342,4.0,11.0,84,0.00,,,0.00,weatherlink.com 1.10,2013-03-06 04:34:00,
2013-03-05 22:49:00,23.6,20.0,30.41,NNW,347,5.0,9.0,84,0.00,,,0.00,weatherlink.com 1.10,2013-03-06 04:49:00,
2013-03-05 23:04:00,23.4,19.0,30.42,North,5,1.0,11.0,83,0.00,,,0.00,weatherlink.com 1.10,2013-03-06 05:04:00,
2013-03-05 23:19:00,23.6,20.0,30.43,NW,323,0.0,6.0,84,0.00,,,0.00,weatherlink.com 1.10,2013-03-06 05:19:00,
2013-03-05 23:34:00,23.8,20.0,30.44,NNW,348,2.0,8.0,84,0.00,,,0.00,weatherlink.com 1.10,2013-03-06 05:34:00,
2013-03-05 23:49:00,23.9,20.0,30.44,NW,321,5.0,8.0,83,0.00,,,0.00,weatherlink.com 1.10,2013-03-06 05:49:00,